Regional Weather Roundup
Issued by NWS Upton, NY

Current Version | Previous Version | Text Only | Print | Product List | Glossary On
Versions: 1 2 3 4 5 6 7 8 9 10 11 12 13 14 15 16 17 18 19 20 21 22 23 24 25 26 27 28 29 30 31 32 33 34 35
000
ASUS41 KOKX 190808
RWROKX

REGIONAL WEATHER ROUNDUP
NATIONAL WEATHER SERVICE NEW YORK NY
300 AM EST SUN NOV 19 2017

NOTE: "FAIR" INDICATES FEW OR NO CLOUDS BELOW 12,000 FEET WITH NO
SIGNIFICANT WEATHER AND/OR OBSTRUCTIONS TO VISIBILITY.

NYZ071-072-176-178-NJZ106-104-190900-
NEW YORK CITY METRO AREA

CITY           SKY/WX    TMP DP  RH WIND       PRES   REMARKS
Central Park   LGT RAIN  57  53  86 MISG      29.34F
Bronx Bot Gard   N/A     57  50  77 SE8       29.31F
LaGuardia APRT LGT RAIN  60  52  74 S16G29    29.31F
Kennedy INTL   LGT RAIN  56  55  97 S23       29.34F
Breezy Point     N/A     57 N/A N/A SW14G22     N/A
Newark/Liberty RAIN      58  53  84 SW17G24   29.31F
Teterboro      DRIZZLE   56  52  86 S10       29.30F
$$

NYZ177-179-078>081-190900-
LONG ISLAND NEW YORK

CITY           SKY/WX    TMP DP  RH WIND       PRES   REMARKS
Jones Beach      N/A     57 N/A N/A SW15G26     N/A
Matinecock PT    N/A     57 N/A N/A SW15G23     N/A
Farmingdale    CLOUDY    59  54  83 SW26      29.34F
MacArthur/ISP  CLOUDY    60  56  86 SW23G31   29.34F
Shirley        LGT RAIN  60  57  89 SW18G30   29.36F
Mt Sinai Harb    N/A     59 N/A N/A S15G22      N/A
Westhampton    CLOUDY    61  55  81 SW17G26   29.37F
East Hampton   CLOUDY    60  56  85 SW15G26   29.37F
Southold       NOT AVBL
Montauk        NOT AVBL
$$

NYZ052-065-067-190900-
HUDSON VALLEY

CITY           SKY/WX    TMP DP  RH WIND       PRES   REMARKS
White Plains   CLOUDY    53  52  96 S7        29.30F
Larchmont Harb   N/A     55 N/A N/A S17         N/A
Croton On Huds   N/A     48 N/A N/A CALM        N/A
Newburgh       CLOUDY    46  46 100 CALM      29.29F
Montgomery     LGT RAIN  43  42  97 CALM      29.25F FOG
Poughkeepsie   CLOUDY    49  47  93 S6        29.26F
Albany         LGT RAIN  48  44  86 SW13G25   29.20F
$$

NJZ001-105-106-008-010-013-015-019>022-104-190900-
NEW JERSEY

CITY           SKY/WX    TMP DP  RH WIND       PRES   REMARKS
Newark/Liberty RAIN      58  53  84 SW17G24   29.31F
Teterboro      DRIZZLE   56  52  86 S10       29.30F
Caldwell       LGT RAIN  44  44 100 W5        29.31F FOG
Somerville     LGT RAIN  44  44 100 CALM      29.29F FOG
Linden         LGT RAIN  58  53  83 SW5       29.31F
Perth Amboy      N/A     57 N/A N/A SW16        N/A
Sussex         LGT RAIN  43  43 100 S3        29.26F FOG
Andover        NOT AVBL
Trenton        LGT RAIN  58  55  90 S17G26    29.32F
Millville      LGT RAIN  61  57  87 SW9       29.38F
Atlantic City  LGT RAIN  59  57  93 S13       29.38F
Wrightstown    LGT RAIN  58  55  90 SW18G28   29.32F
Toms River     LGT RAIN  58  56  93 SW16      29.35F
Belmar         RAIN      58  55  90 SW14G20   29.35F
$$

PAZ047>061-062-071-190900-
EASTERN PENNSYLVANIA

CITY           SKY/WX    TMP DP  RH WIND       PRES   REMARKS
Philadelphia   RAIN      59  55  87 SW16G28   29.34F
Allentown      RAIN      56  51  84 S17G26    29.25F
Scranton       LGT RAIN  54  49  83 SW8G21    29.16F
$$

CTZ002-004>006-009-010-012-RIZ004-006-007-MAZ004-011-015-190900-
SOUTHERN NEW ENGLAND
 IN CT

CITY           SKY/WX    TMP DP  RH WIND       PRES   REMARKS
Bradley INTL   LGT RAIN  41  40  96 CALM      29.30F FOG
Hartford       LGT RAIN  57  53  86 S14G21    29.29F FOG
Danbury        CLOUDY    55  52  89 S10G17    29.30F
Wtrbury/Oxford LGT RAIN  53  52  96 S9G18     29.31F
Norwalk Harbor   N/A     57 N/A N/A S17         N/A
Bridgeport     LGT RAIN  58  53  84 SW17      29.32F
Meriden        LGT RAIN  56  53  90 S12       29.31F
New Haven      LGT RAIN  58  53  84 S14G21    29.33F
Chester        CLOUDY    59  55  88 SW13G24   29.33F
Groton         CLOUDY    60  55  83 SW20G26   29.35F
Wilimantic     CLOUDY    60  53  77 S12G21    29.34F

 IN RI

CITY           SKY/WX    TMP DP  RH WIND       PRES   REMARKS
Providence     CLOUDY    61  57  87 SW20G29   29.36F
Block Island   CLOUDY    61  57  87 SW29G38   29.38F
Westerly       CLOUDY    61  58  90 SW15G30   29.37F
 IN MA

CITY           SKY/WX    TMP DP  RH WIND       PRES   REMARKS
Boston         CLOUDY    55  53  93 S13       29.34F
Worcester      CLOUDY    53  49  86 S16G25    29.30F
Westfield      LGT RAIN  38  38 100 CALM      29.29F FOG
Provincetown   CLOUDY    58  53  84 S16G22    29.40F
Nantucket      CLOUDY    58  55  90 S21       29.45F
$$

ANZ330-335-338-340-345-350-353-355-190900-
COASTAL MARINE OBSERVATIONS


STATION/POSITION TIME  SKY/WX   TEMP    WIND        PRES    VSBY  WAVE
                                AIR SEA DIR/SP/G                  HT/PER
                 (UTC)          (F)     (DEG/KT/KT) (MB)    (MI)  (FT/S)
NY HARB ENTRANCE 0650            60 59  210/ 27/ 35  993.0          9/ 8
20 S FIRE ISLAND 0750            61 58  210/ 27/ 35  993.8         13/ 9
GREAT SOUTH BAY  0715            57 46  230/ 21/ 27   N/A
HUDSON CANYON    0750            65 60  210/ 27/ 33  996.0         15/ 9
KINGS POINT      NOT AVBL
EXECUTION ROCKS  0730            57     170/ 14/ 17   N/A
WESTERN LI SOUND 0649            58     200/ 12/ 17   N/A           1
CENTRAL LI SOUND 0715            61     210/ 21/ 29   N/A           3
ROBBINS REEF     NOT AVBL
$$


>>>>>>>>>>>>>>>>>>>>>>>>>>>> KEY <<<<<<<<<<<<<<<<<<<<<<<<<<<
>                                                          <
>     SKY/WX - Sky Condition/Present Weather               <
>     TMP    - Temperature in Fahrenheit                   <
>     DP     - Dew Point in Fahrenheit                     <
>     RH     - Relative Humidity in Percent                <
>     WIND   - Direction (from) and Speed in MPH           <
>     PRES   - Mean Sea Level Pressure (inches of Hg)      <
>     WCI    - Wind Chill Index                            <
>     VSB    - VISIBILITY IN MILES                         <
>     HX     - HEAT INDEX                                  <
>     TC     - TEMPERATURE IN CELSIUS                      <
>     VRB    - VARIABLE WIND DIRECTION                     <
>                                                          <
>>>>>>>>>>>>>>>>>>>>>>>>>>>> KEY <<<<<<<<<<<<<<<<<<<<<<<<<<<




USA.gov is the U.S. government's official web portal to all federal, state and local government web resources and services.